• In Netherlands
  • List of Countries
  • For 7 days
  • Water Temperature
  • Satellite Maps
  • Weather Map
  • Weather Widgets
  • user-avatar
    Login

    Hourly Weather Veliko Tarnovo

    Today, 16 December, Saturday

    Time Temperature Precipitation Wind Pressure Humidity
    00:00 +8°C° 0 mm 3 mps 732 mmHg 73%
    01:00 +8°C° 0 mm 3 mps 732 mmHg 74%
    02:00 +8°C° 0 mm 3 mps 732 mmHg 75%
    03:00 +7°C° 0 mm 4 mps 731 mmHg 76%
    04:00 +7°C° 0 mm 4 mps 731 mmHg 77%
    05:00 +7°C° 0 mm 4 mps 731 mmHg 78%
    06:00 +8°C° 0 mm 4 mps 731 mmHg 78%
    07:00 +8°C° 0 mm 4 mps 731 mmHg 77%
    08:00 +8°C° 0 mm 4 mps 730 mmHg 77%
    09:00 +10°C° 0 mm 4 mps 731 mmHg 71%
    10:00 +12°C° 0 mm 4 mps 731 mmHg 66%
    11:00 +13°C° 0 mm 5 mps 731 mmHg 61%
    12:00 +14°C° 0 mm 5 mps 731 mmHg 59%
    13:00 +14°C° 0 mm 4 mps 731 mmHg 57%
    14:00 +15°C° 0 mm 4 mps 731 mmHg 55%
    15:00 +14°C° 0 mm 3 mps 732 mmHg 60%
    16:00 +13°C° 0 mm 3 mps 732 mmHg 65%
    17:00 +13°C° 0 mm 2 mps 732 mmHg 70%
    18:00 +12°C° 0.4 mm 2 mps 732 mmHg 75%
    19:00 +11°C° 0.4 mm 1 mps 733 mmHg 80%
    20:00 +11°C° 0.4 mm 1 mps 733 mmHg 85%
    21:00 +10°C° 0.8 mm 1 mps 733 mmHg 88%
    22:00 +9°C° 0.8 mm 2 mps 733 mmHg 90%
    23:00 +9°C° 0.8 mm 2 mps 733 mmHg 93%

    Tomorrow, 17 December, Sunday

    Time Temperature Precipitation Wind Pressure Humidity
    00:00 +8°C° 1 mm 2 mps 733 mmHg 92%
    01:00 +8°C° 1 mm 2 mps 733 mmHg 92%
    02:00 +7°C° 1 mm 3 mps 733 mmHg 92%
    03:00 +7°C° 0.2 mm 3 mps 733 mmHg 91%
    04:00 +7°C° 0.2 mm 3 mps 733 mmHg 89%
    05:00 +5°C° 0.2 mm 3 mps 733 mmHg 88%
    06:00 +5°C° 0.7 mm 3 mps 733 mmHg 88%
    07:00 +6°C° 0.7 mm 2 mps 734 mmHg 88%
    08:00 +5°C° 0.7 mm 2 mps 734 mmHg 89%
    09:00 +5°C° 0.6 mm 2 mps 734 mmHg 88%
    10:00 +5°C° 0.6 mm 2 mps 735 mmHg 87%
    11:00 +5°C° 0.6 mm 2 mps 735 mmHg 86%
    12:00 +6°C° 0.3 mm 2 mps 735 mmHg 84%
    13:00 +6°C° 0.3 mm 2 mps 735 mmHg 83%
    14:00 +6°C° 0.3 mm 2 mps 735 mmHg 82%
    15:00 +5°C° 0.2 mm 2 mps 735 mmHg 83%
    16:00 +5°C° 0.2 mm 2 mps 736 mmHg 84%
    17:00 +5°C° 0.2 mm 2 mps 736 mmHg 86%
    18:00 +5°C° 0.3 mm 2 mps 737 mmHg 86%
    19:00 +4°C° 0.3 mm 2 mps 737 mmHg 86%
    20:00 +4°C° 0.3 mm 2 mps 738 mmHg 86%
    21:00 +4°C° 0.1 mm 2 mps 738 mmHg 85%
    22:00 +4°C° 0.1 mm 2 mps 739 mmHg 85%
    23:00 +3°C° 0.1 mm 2 mps 739 mmHg 84%

    Day after tomorrow, 18 December, Monday

    Time Temperature Precipitation Wind Pressure Humidity
    00:00 +3°C° 0 mm 2 mps 740 mmHg 84%
    01:00 +3°C° 0 mm 2 mps 740 mmHg 83%
    02:00 +3°C° 0 mm 2 mps 740 mmHg 82%
    03:00 +2°C° 0 mm 2 mps 740 mmHg 81%
    04:00 +2°C° 0 mm 2 mps 740 mmHg 81%
    05:00 +2°C° 0 mm 2 mps 740 mmHg 80%
    06:00 +2°C° 0 mm 2 mps 741 mmHg 80%
    07:00 +1°C° 0 mm 2 mps 741 mmHg 80%
    08:00 +2°C° 0 mm 1 mps 742 mmHg 81%
    09:00 +2°C° 0 mm 2 mps 742 mmHg 76%
    10:00 +3°C° 0 mm 2 mps 742 mmHg 72%
    11:00 +2°C° 0 mm 3 mps 742 mmHg 68%
    12:00 +2°C° 0 mm 3 mps 742 mmHg 67%
    13:00 +3°C° 0 mm 3 mps 741 mmHg 67%
    14:00 +3°C° 0 mm 3 mps 741 mmHg 66%
    15:00 +2°C° 0.1 mm 3 mps 741 mmHg 69%
    16:00 +3°C° 0.1 mm 2 mps 741 mmHg 72%
    17:00 +2°C° 0.1 mm 2 mps 741 mmHg 75%
    18:00 +2°C° 0.1 mm 2 mps 741 mmHg 75%
    19:00 +1°C° 0.1 mm 3 mps 742 mmHg 76%
    20:00 0°C° 0.1 mm 3 mps 742 mmHg 77%
    21:00 0°C° 0.1 mm 3 mps 742 mmHg 77%
    22:00 0°C° 0.1 mm 3 mps 743 mmHg 77%
    23:00 -1°C° 0.1 mm 3 mps 743 mmHg 77%

    19 December, Tuesday

    Time Temperature Precipitation Wind Pressure Humidity
    00:00 -1°C° 0.1 mm 3 mps 743 mmHg 77%
    01:00 -1°C° 0.1 mm 3 mps 744 mmHg 77%
    02:00 -1°C° 0.1 mm 3 mps 744 mmHg 77%
    03:00 -1°C° 0.1 mm 2 mps 744 mmHg 77%
    04:00 -1°C° 0.1 mm 2 mps 744 mmHg 77%
    05:00 -2°C° 0.1 mm 2 mps 745 mmHg 77%
    06:00 -2°C° 0.1 mm 2 mps 745 mmHg 78%
    07:00 -2°C° 0.1 mm 2 mps 746 mmHg 78%
    08:00 0°C° 0.1 mm 1 mps 746 mmHg 78%
    09:00 -2°C° 0.1 mm 2 mps 747 mmHg 75%
    10:00 -1°C° 0.1 mm 2 mps 747 mmHg 73%
    11:00 +1°C° 0.1 mm 2 mps 747 mmHg 70%
    12:00 +1°C° 0.1 mm 2 mps 747 mmHg 70%
    13:00 0°C° 0.1 mm 3 mps 747 mmHg 71%
    14:00 0°C° 0.1 mm 3 mps 747 mmHg 72%
    15:00 0°C° 0.1 mm 3 mps 748 mmHg 76%
    16:00 -1°C° 0.1 mm 2 mps 748 mmHg 80%
    17:00 -1°C° 0.1 mm 2 mps 748 mmHg 84%
    18:00 -2°C° 0.2 mm 2 mps 748 mmHg 85%
    19:00 -2°C° 0.2 mm 2 mps 749 mmHg 87%
    20:00 -2°C° 0.2 mm 2 mps 749 mmHg 88%
    21:00 -2°C° 0.1 mm 2 mps 749 mmHg 88%
    22:00 -2°C° 0.1 mm 2 mps 750 mmHg 89%
    23:00 -2°C° 0.1 mm 2 mps 750 mmHg 89%

    20 December, Wednesday

    Time Temperature Precipitation Wind Pressure Humidity
    00:00 0°C° 0.1 mm 1 mps 750 mmHg 89%
    01:00 0°C° 0.1 mm 1 mps 750 mmHg 89%
    02:00 -1°C° 0.1 mm 1 mps 750 mmHg 89%
    03:00 -1°C° 0 mm 1 mps 749 mmHg 89%
    04:00 -1°C° 0 mm 1 mps 749 mmHg 89%
    05:00 -1°C° 0 mm 1 mps 749 mmHg 88%
    06:00 -1°C° 0 mm 1 mps 749 mmHg 88%
    07:00 -1°C° 0 mm 1 mps 750 mmHg 87%
    08:00 -1°C° 0 mm 1 mps 750 mmHg 87%
    09:00 0°C° 0 mm 1 mps 750 mmHg 81%
    10:00 0°C° 0 mm 1 mps 750 mmHg 76%
    11:00 +1°C° 0 mm 1 mps 750 mmHg 70%
    12:00 +2°C° 0 mm 1 mps 749 mmHg 69%
    13:00 +2°C° 0 mm 1 mps 749 mmHg 68%
    14:00 +2°C° 0 mm 1 mps 749 mmHg 67%
    15:00 +1°C° 0 mm 1 mps 749 mmHg 71%
    16:00 +1°C° 0 mm 1 mps 749 mmHg 75%
    17:00 -1°C° 0 mm 0 mps 749 mmHg 79%
    18:00 -1°C° 0 mm 0 mps 749 mmHg 80%
    19:00 -2°C° 0 mm 0 mps 750 mmHg 81%
    20:00 -2°C° 0 mm 0 mps 750 mmHg 82%
    21:00 -1°C° 0 mm 1 mps 750 mmHg 81%
    22:00 -1°C° 0 mm 1 mps 750 mmHg 81%
    23:00 -1°C° 0 mm 1 mps 750 mmHg 80%

    21 December, Thursday

    Time Temperature Precipitation Wind Pressure Humidity
    00:00 -1°C° 0 mm 1 mps 750 mmHg 80%
    01:00 -1°C° 0 mm 1 mps 750 mmHg 80%
    02:00 -1°C° 0 mm 1 mps 750 mmHg 80%
    03:00 -2°C° 0 mm 1 mps 750 mmHg 80%
    04:00 -2°C° 0 mm 1 mps 750 mmHg 81%
    05:00 -2°C° 0 mm 1 mps 749 mmHg 82%
    06:00 -2°C° 0 mm 1 mps 750 mmHg 82%
    07:00 -2°C° 0 mm 1 mps 750 mmHg 83%
    08:00 -2°C° 0 mm 1 mps 750 mmHg 84%
    09:00 -1°C° 0 mm 1 mps 750 mmHg 79%
    10:00 -2°C° 0 mm 2 mps 750 mmHg 75%
    11:00 -2°C° 0 mm 2 mps 750 mmHg 71%
    12:00 -1°C° 0 mm 2 mps 749 mmHg 68%
    13:00 -1°C° 0 mm 3 mps 749 mmHg 66%
    14:00 0°C° 0 mm 3 mps 748 mmHg 64%
    15:00 -1°C° 0 mm 2 mps 748 mmHg 68%
    16:00 -2°C° 0 mm 2 mps 748 mmHg 72%
    17:00 -1°C° 0 mm 1 mps 748 mmHg 76%
    18:00 -1°C° 0 mm 1 mps 748 mmHg 74%
    19:00 -1°C° 0 mm 1 mps 748 mmHg 73%
    20:00 -1°C° 0 mm 1 mps 748 mmHg 72%
    21:00 -1°C° 0 mm 1 mps 747 mmHg 69%
    22:00 -1°C° 0 mm 1 mps 747 mmHg 67%
    23:00 0°C° 0 mm 1 mps 747 mmHg 64%
    Show more